This is the latest recevied weather packets stored in our database for station/object EA1IOK-1. If no packets are shown the sender has not sent any weather packets the latest 10 day(s).
| Time | Temp. | Humidity | Pressure | Rain* | Wind** | Luminosity | Snow |
|---|---|---|---|---|---|---|---|
| 1777854265 | 10.56° C | 100% | 1013.3 hPa | - | - | - | - |
| 1777853364 | 11.11° C | 100% | 1013.1 hPa | - | - | - | - |
| 1777852463 | 10.56° C | 100% | 1013.2 hPa | - | - | - | - |
| 1777851560 | 11.11° C | 100% | 1013.2 hPa | - | - | - | - |
| 1777850659 | 11.11° C | 100% | 1013.1 hPa | - | - | - | - |
| 1777849758 | 11.11° C | 100% | 1013.2 hPa | - | - | - | - |
| 1777848857 | 11.11° C | 100% | 1013.2 hPa | - | - | - | - |
| 1777847956 | 11.11° C | 100% | 1013.1 hPa | - | - | - | - |
| 1777847055 | 11.11° C | 100% | 1013.1 hPa | - | - | - | - |
| 1777846155 | 11.11° C | 100% | 1013.1 hPa | - | - | - | - |
| 1777845254 | 11.11° C | 100% | 1013.1 hPa | - | - | - | - |
| 1777844353 | 11.11° C | 100% | 1012.9 hPa | - | - | - | - |
| 1777843453 | 11.67° C | 100% | 1013 hPa | - | - | - | - |
| 1777842552 | 11.11° C | 100% | 1012.9 hPa | - | - | - | - |
| 1777841651 | 11.67° C | 100% | 1012.7 hPa | - | - | - | - |
| 1777840750 | 11.67° C | 100% | 1012.6 hPa | - | - | - | - |
| 1777839849 | 12.22° C | 100% | 1012.4 hPa | - | - | - | - |
| 1777838948 | 12.22° C | 100% | 1012.1 hPa | - | - | - | - |
| 1777838047 | 12.78° C | 100% | 1012 hPa | - | - | - | - |
| 1777837179 | 12.78° C | 100% | 1011.8 hPa | - | - | - | - |
| 1777837147 | 12.78° C | 100% | 1011.8 hPa | - | - | - | - |
| 1777836246 | 12.78° C | 100% | 1011.7 hPa | - | - | - | - |
| 1777835346 | 13.33° C | 100% | 1011.5 hPa | - | - | - | - |
| 1777834445 | 13.33° C | 100% | 1011.4 hPa | - | - | - | - |
| 1777833544 | 13.33° C | 100% | 1011.3 hPa | - | - | - | - |
* Rain since midnight (hover to see other rain measurements)
** Current wind speed in m/s (hover to see current wind gust speed)